Location: Bou Ouachlou
(32.7770°N, 5.6009°W)
Time: 19:43:55
(UTC+00:00)

SL-16 R/B - Visible Passes

Search period start: 25 September 2020 00:00
Search period end: 05 October 2020 00:00
Orbit: 843 x 845 km, 71.0° (Epoch: 25 September)

Date Brightness Start Highest point End Pass type
(mag) Time Alt. Az. Time Alt. Az. Time Alt. Az.
25 Sep 4.0 03:06:39 26° NE 03:06:39 26° NE 03:09:06 10° NNE visible
25 Sep 3.8 04:48:34 16° NW 04:48:34 16° NW 04:51:33 10° NNW visible
26 Sep 4.4 02:53:10 19° NE 02:53:10 19° NE 02:54:47 10° NNE visible
26 Sep 4.0 04:35:04 16° NW 04:35:04 16° NW 04:37:21 10° NNW visible
27 Sep 4.8 02:39:38 14° NNE 02:39:38 14° NNE 02:40:27 10° NNE visible
27 Sep 4.1 04:21:31 15° NNW 04:21:31 15° NNW 04:23:09 10° NNW visible
28 Sep 5.1 02:26:02 10° NNE 02:26:02 10° NNE 02:26:07 10° NNE visible
28 Sep 4.3 04:07:54 13° NNW 04:07:54 13° NNW 04:08:55 10° NNW visible
29 Sep 4.5 03:54:16 11° NNW 03:54:16 11° NNW 03:54:41 10° NNW visible
